Location: Leiter
(44.7178°N, 106.2687°W)
Time: 22:59:02
(UTC+00:00)

ESTCUBE 1 - Pass Details

Date: 03 July 2022
Orbit: 646 x 657 km, 97.9° (Epoch: 07 August)

Event Time Altitude Azimuth Distance (km) Brightness Sun altitude
Exits shadow 06:11:30 18° 237° (WSW) 1,566 ? -21.0°
Maximum altitude 06:13:08 22° 267° (W) 1,404 ? -21.1°
Drops below altitude 10° 06:16:39 10° 319° (NW) 2,057 ? -21.3°
Sets 06:19:19 0° 334° (NNW) 2,975 ? -21.4°
